Temperature
23 20 20 21 21 22 22 22 21 22 23 22 21 20 20 20 20 20 20 19 19 19 19 19 18 18 18 18 17 17 17 17 17 17 16 16 16 16 16 15 15 15 15 15
21 21 22 23 23 23 22 21 21 22 23 22 20 20 20 20 20 20 20 19 19 19 18 18 18 18 17 17 17 17 17 17 17 16 16 16 16 15 15 15 15 15 15 15
22 22 24 24 23 23 22 22 22 22 22 22 21 20 19 19 19 20 19 19 19 18 18 18 17 17 17 17 17 17 16 16 16 16 16 15 15 15 15 15 15 15 14 14
22 24 25 24 24 23 22 23 23 23 21 20 21 18 18 18 18 18 18 18 18 18 18 17 17 17 17 17 17 16 16 16 16 15 15 15 15 15 15 14 14 14 14 14
23 24 24 24 25 24 23 24 23 22 20 19 19 18 18 17 17 17 17 18 18 18 17 17 17 17 17 16 16 16 16 15 15 15 15 15 14 14 14 14 14 14 14 14
24 25 25 25 25 25 24 22 21 19 18 19 19 18 17 17 17 17 17 17 17 17 17 17 17 16 16 16 16 16 15 15 15 15 14 14 14 14 14 14 14 14 14 13
23 24 25 25 24 24 22 19 19 19 18 18 19 18 17 17 18 18 17 17 17 17 17 17 16 16 16 16 16 15 15 15 15 14 14 14 14 14 14 13 13 13 13 13
22 22 24 25 24 23 22 20 19 19 18 18 18 18 17 18 18 18 18 18 17 17 17 17 16 16 16 16 15 15 15 14 14 14 14 14 13 13 13 13 13 13 13 13
21 22 24 25 25 24 23 20 19 18 18 18 18 18 18 17 17 17 17 17 17 17 17 16 16 16 16 15 15 15 14 14 14 14 14 14 13 13 13 13 13 13 13 13
22 22 23 24 24 23 23 21 18 18 18 18 18 18 17 17 17 17 16 17 17 17 16 16 16 16 15 15 15 15 14 14 14 14 14 13 13 13 13 13 13 13 13 13
21 20 21 22 22 22 22 21 18 17 17 17 17 17 18 17 16 16 16 17 17 17 16 16 16 16 15 15 15 14 14 14 14 13 13 13 13 13 13 13 13 12 12 12
20 18 19 20 21 22 22 21 19 18 17 16 16 16 18 16 16 16 17 17 17 16 16 16 15 15 15 15 14 14 14 13 13 13 13 13 13 13 13 13 12 12 12 12
20 18 18 19 19 21 21 21 20 17 16 16 16 17 17 17 16 17 17 16 16 16 16 15 15 15 15 14 14 14 13 13 13 13 13 13 13 13 12 12 12 12 12 12
20 17 18 19 19 20 20 20 20 18 16 16 17 17 17 16 15 16 16 16 16 16 15 15 15 15 14 14 14 13 13 13 13 13 13 13 13 13 12 12 12 12 12 11
18 18 19 19 20 21 21 20 20 19 18 17 17 17 16 16 15 16 16 16 16 15 15 15 15 14 14 14 13 13 13 13 13 13 12 12 12 12 12 12 12 12 11 11
17 18 19 19 20 21 20 20 20 20 19 18 17 17 16 16 17 16 16 16 15 15 15 15 15 14 14 14 13 13 13 13 13 13 12 12 12 12 12 12 12 11 11 11
17 17 17 17 19 19 19 19 20 19 19 18 17 16 15 15 15 16 16 16 16 15 15 15 14 14 14 14 13 13 13 13 13 12 12 12 12 12 12 12 11 11 11 11
16 16 15 16 18 18 18 19 20 18 17 17 16 16 16 16 16 16 16 16 16 15 15 15 14 14 14 13 13 13 13 13 13 12 12 12 12 12 12 11 11 11 11 11
16 16 15 15 16 17 19 20 19 18 17 17 16 16 16 16 16 15 16 16 16 16 15 15 14 14 14 13 13 13 13 13 12 12 12 12 12 12 12 11 11 11 11 11
17 15 15 15 17 17 17 20 20 18 16 17 16 15 16 15 13 14 16 16 16 16 15 15 14 14 14 13 13 13 13 13 12 12 12 12 12 12 12 11 11 11 11 11
17 16 16 15 16 16 18 19 19 17 16 17 17 17 16 15 15 16 16 16 16 15 15 15 14 14 13 13 13 13 13 13 13 12 12 12 12 12 12 11 11 11 11 11
16 15 15 15 15 16 18 18 17 16 17 18 17 17 17 17 16 16 16 16 15 15 15 14 14 14 13 13 13 13 13 12 12 12 12 12 12 12 12 12 11 11 11 11
16 15 14 15 15 17 19 19 19 19 18 18 17 17 17 17 16 16 16 15 15 15 14 14 14 13 13 13 13 13 13 12 12 12 12 12 12 12 12 12 11 11 11 11
17 16 15 15 16 17 19 19 19 19 18 18 18 17 17 16 16 16 15 15 15 14 14 14 14 13 13 13 13 13 12 12 12 12 12 12 12 12 12 12 11 11 11 11
17 16 15 15 16 17 18 19 18 18 18 18 17 17 17 16 16 15 15 15 14 14 14 14 13 13 13 13 13 12 12 12 12 12 12 12 12 12 12 12 11 11 11 11
16 16 15 15 16 16 17 18 18 18 18 17 17 17 16 16 16 15 15 14 14 14 14 13 13 13 13 13 12 12 12 12 12 12 12 12 12 12 12 12 12 11 11 11
Wind_Speed
1 2 4 8 9 8 5 3 4 5 3 2 4 3 3 3 4 4 4 5 5 4 3 4 5 4 4 4 4 3 2 1 2 1 1 1 1 1 1 1 1 1 1 1
3 5 11 8 6 5 3 3 4 4 2 3 4 2 2 2 3 5 5 5 4 3 2 3 4 4 3 3 3 3 2 1 2 1 1 1 1 1 1 1 2 2 2 1
6 8 5 3 3 4 4 5 4 3 1 3 4 3 1 1 0 2 3 3 5 5 5 4 4 3 3 3 3 3 2 1 1 1 1 2 2 2 2 2 2 2 3 3
5 6 3 2 3 4 4 5 4 1 2 2 2 1 2 1 2 2 1 3 3 3 3 3 3 3 3 2 3 3 2 1 1 1 1 1 1 1 2 2 2 3 3 2
5 3 2 2 4 4 5 3 1 1 2 1 3 3 3 1 1 2 1 2 3 3 3 3 3 3 3 2 3 3 2 1 0 1 1 1 0 2 2 2 2 3 3 3
5 3 2 3 2 3 3 5 6 6 5 2 2 3 2 2 3 1 1 2 3 3 3 2 2 3 2 2 3 2 2 0 0 1 0 1 1 2 2 3 2 2 2 2
6 6 3 0 2 3 6 7 4 5 4 3 1 3 3 3 1 3 3 3 3 3 3 2 2 2 2 2 2 1 1 0 1 1 1 1 2 2 2 3 3 2 2 2
2 5 5 2 2 2 1 7 6 3 3 3 2 2 2 2 2 3 3 3 3 3 2 2 2 2 2 2 2 1 1 1 1 1 2 2 2 2 2 3 2 2 2 3
1 4 5 4 2 4 2 1 6 6 1 1 1 0 2 1 3 2 2 3 2 2 2 2 1 2 2 1 1 1 1 1 2 2 2 2 2 2 3 3 2 2 3 2
3 2 5 5 5 5 4 5 5 4 2 1 2 1 3 2 2 1 1 2 2 1 1 1 1 2 2 1 0 0 0 1 1 1 2 1 2 3 2 1 2 2 3 2
3 2 5 6 3 2 3 3 5 4 4 4 2 4 3 6 4 3 3 2 2 2 2 2 1 1 2 2 2 2 1 1 2 2 2 2 2 1 1 1 2 2 2 2
2 4 2 5 5 1 2 2 5 3 1 3 3 4 2 5 3 3 2 1 2 3 2 2 2 2 2 2 1 1 1 1 2 2 1 2 2 1 1 1 2 1 1 1
4 5 3 7 8 7 4 3 2 4 4 3 3 3 0 2 3 3 3 3 3 3 3 3 3 2 1 1 0 1 2 2 2 1 1 2 2 1 1 1 1 1 1 1
5 5 5 5 5 4 4 5 3 4 3 2 3 4 1 2 3 2 3 3 3 3 3 2 2 1 0 1 1 1 2 2 2 2 2 2 2 2 2 2 1 1 1 1
5 3 2 3 3 2 3 3 3 2 4 5 4 5 5 4 4 4 3 3 3 3 2 2 1 0 1 1 1 1 2 2 2 1 2 3 2 2 1 1 2 1 1 1
4 3 1 2 3 3 4 4 2 1 2 5 5 2 2 3 3 3 3 4 3 2 1 0 0 1 2 1 1 2 2 3 2 2 2 2 1 1 1 1 1 1 2 2
3 4 2 2 5 4 3 3 1 2 2 5 3 3 2 3 3 3 3 3 3 2 1 1 1 1 2 2 2 2 2 2 2 2 2 1 1 1 1 1 2 1 2 1
6 5 3 0 3 1 5 2 4 5 3 3 4 4 5 5 4 3 4 4 3 2 2 2 2 2 2 2 1 1 2 2 2 2 2 2 1 1 1 1 2 2 1 1
6 7 4 3 1 3 3 1 1 3 1 1 4 4 3 4 4 2 1 3 4 3 3 3 3 2 2 2 1 1 2 2 2 2 2 2 1 1 1 1 2 2 1 1
5 6 5 3 2 4 6 4 1 6 0 2 4 5 4 4 3 3 3 2 2 1 2 2 1 0 1 2 1 1 2 2 2 3 3 2 2 1 1 2 2 1 0 1
2 2 2 3 3 5 5 3 3 3 6 4 4 5 4 3 5 5 3 2 1 1 2 2 1 1 2 2 0 1 2 3 4 4 3 2 2 2 2 1 1 0 1 1
4 3 3 3 2 6 4 2 4 6 4 4 5 5 5 3 2 2 3 2 1 1 1 1 1 2 2 1 0 1 3 4 3 2 2 2 1 1 0 0 1 1 1 1
3 6 5 6 6 6 4 5 5 6 6 5 5 4 5 4 3 2 2 2 2 2 1 1 1 1 3 2 0 2 4 3 2 2 2 1 1 1 1 1 2 2 1 1
2 1 2 1 2 2 1 2 4 5 5 5 5 5 5 4 3 3 2 2 2 2 2 1 0 1 3 3 2 3 4 2 1 2 2 1 1 2 1 1 1 1 1 1
3 1 1 0 2 1 1 2 4 4 5 5 4 4 5 5 4 4 3 3 2 2 2 1 1 2 3 3 3 3 3 1 1 1 1 2 1 1 1 1 2 2 3 3
3 4 4 6 7 5 4 4 5 5 5 5 5 3 2 4 4 4 3 3 3 2 1 1 2 2 3 4 3 4 3 1 1 1 1 1 1 1 1 1 2 3 3 3
Wind_Direction
298 96 230 227 203 199 216 238 275 268 232 125 141 156 190 170 139 141 146 152 154 159 163 141 140 142 123 113 110 107 98 130 114 95 84 54 330 303 303 277 255 273 268 255
8 266 242 233 221 201 211 243 274 281 243 134 114 110 156 139 159 162 160 155 153 135 117 126 129 125 124 123 116 103 103 118 117 135 168 185 220 250 243 307 301 295 283 278
215 247 251 221 206 206 229 218 233 242 353 75 104 30 68 331 85 74 78 118 140 137 144 139 133 128 122 128 137 123 123 115 120 111 78 42 28 8 2 341 319 301 293 285
253 254 240 234 221 180 248 234 216 210 75 286 143 171 301 291 337 347 47 85 105 104 118 124 121 115 123 144 134 123 130 119 115 109 117 120 98 300 277 270 281 299 304 305
270 258 231 248 233 179 218 227 192 163 117 31 13 110 293 330 324 322 357 93 107 131 128 132 144 146 143 138 134 130 114 118 124 105 141 136 254 270 284 291 297 303 306 306
269 274 206 223 258 171 146 45 35 48 69 34 288 127 277 272 251 213 157 124 140 143 142 125 116 128 132 131 128 125 127 172 224 172 119 153 226 272 304 308 300 299 298 296
339 332 317 313 19 9 76 77 37 8 13 273 288 104 241 265 227 141 152 158 143 131 130 119 102 111 120 126 132 141 143 230 258 224 245 239 236 235 254 273 273 282 294 294
3 310 306 332 174 197 135 125 147 187 227 279 1 137 246 276 104 104 116 127 114 122 131 147 146 141 140 143 147 164 187 257 268 242 250 260 260 249 257 261 262 268 260 262
151 276 304 325 327 129 109 144 165 141 133 51 314 54 305 31 77 84 108 117 132 133 131 145 141 142 138 137 173 186 199 281 281 267 264 279 272 260 262 266 269 274 270 279
131 288 310 330 17 14 129 143 81 92 126 300 297 261 244 227 212 201 179 175 166 133 108 100 135 147 144 141 135 353 253 281 290 283 269 275 259 253 252 280 297 285 286 290
94 104 322 1 19 338 12 56 90 106 142 152 240 273 238 195 198 189 207 185 153 110 102 101 102 95 87 67 50 23 348 336 330 312 293 290 290 296 323 315 288 280 292 299
68 108 309 286 286 219 125 130 129 136 221 160 166 262 275 175 177 155 151 118 101 96 92 90 90 95 87 75 40 5 327 311 291 297 299 300 300 342 2 306 295 301 316 330
101 99 34 343 345 359 12 10 90 129 121 142 156 245 309 117 108 123 127 126 123 104 85 82 84 99 124 144 258 292 289 282 286 310 333 319 323 341 329 310 306 333 1 15
108 102 147 193 236 290 325 341 1 99 134 173 190 190 212 153 134 139 138 140 130 114 102 86 81 72 258 237 266 298 312 307 303 324 333 325 320 310 300 313 335 347 17 31
93 110 171 220 253 306 339 343 10 96 166 166 187 177 209 197 168 171 162 132 114 102 89 86 94 318 315 327 323 321 325 325 312 318 322 307 303 307 323 348 340 339 351 356
91 127 59 343 344 1 2 350 17 62 114 128 125 164 234 169 127 131 143 135 134 133 133 119 61 325 320 312 294 305 314 314 316 302 301 301 314 338 345 337 337 347 345 346
112 120 91 299 312 6 358 324 97 96 107 144 163 202 165 120 138 158 160 150 154 170 182 206 263 272 280 273 257 274 289 305 320 309 305 299 314 337 324 335 355 326 314 339
144 130 133 211 11 316 253 301 112 106 70 94 129 147 149 151 163 167 160 147 154 176 202 233 247 272 280 276 280 292 311 319 317 310 307 299 305 303 319 342 335 316 315 336
148 140 128 128 170 274 293 325 137 134 42 48 125 127 123 128 85 28 198 158 175 193 206 223 229 240 274 284 280 316 329 323 324 309 296 279 241 223 287 311 308 313 344 345
88 103 123 137 162 233 249 270 150 106 52 283 131 130 132 101 84 266 258 183 167 177 189 200 238 311 297 287 285 7 318 313 297 287 277 262 233 213 233 263 279 296 173 285
57 53 135 173 204 248 254 267 85 139 227 219 150 144 138 150 199 225 214 182 179 167 178 169 169 292 268 282 309 321 292 277 272 277 284 281 246 232 223 245 243 272 317 322
169 171 199 162 186 250 256 126 159 204 189 162 149 151 146 163 181 171 163 170 159 121 116 116 98 293 286 286 250 288 285 280 286 296 314 312 282 263 88 185 287 304 340 327
168 184 184 187 213 237 220 184 184 155 149 159 156 158 144 143 161 160 163 173 185 189 191 162 168 292 300 289 228 264 275 285 294 322 323 301 270 283 269 248 280 298 300 292
307 110 104 16 276 237 166 131 131 135 143 153 154 154 146 152 164 159 168 188 209 217 212 193 187 313 301 290 279 260 271 277 294 303 295 283 283 289 301 296 267 240 252 267
235 130 92 256 257 44 54 147 143 123 118 121 127 138 149 151 159 170 181 199 208 219 221 192 207 254 273 284 290 283 279 268 298 304 299 302 288 262 294 296 274 255 244 223
229 194 188 224 223 185 214 201 153 135 137 139 132 135 151 157 169 170 182 200 203 212 202 215 251 265 278 286 291 296 288 259 199 306 306 299 293 271 262 284 316 317 270 271
Height
1497 1504 1508 1502 1500 1501 1502 1505 1507 1501 1494 1497 1502 1503 1501 1500 1501 1502 1503 1503 1504 1506 1507 1507 1508 1508 1508 1507 1507 1507 1507 1507 1507 1506 1506 1505 1504 1504 1503 1502 1501 1501 1500 1499
1502 1504 1494 1492 1493 1496 1500 1505 1505 1498 1492 1497 1503 1505 1502 1501 1501 1501 1502 1503 1505 1506 1507 1507 1507 1507 1507 1506 1506 1506 1506 1506 1506 1505 1505 1504 1503 1502 1501 1500 1500 1499 1498 1496
1503 1495 1487 1489 1493 1496 1499 1503 1501 1500 1494 1496 1502 1510 1507 1505 1503 1503 1503 1504 1505 1505 1506 1506 1506 1506 1506 1505 1505 1505 1505 1505 1505 1504 1504 1503 1501 1500 1499 1498 1498 1497 1495 1494
1495 1488 1487 1490 1491 1493 1501 1491 1491 1494 1503 1511 1506 1524 1514 1508 1506 1504 1503 1503 1504 1505 1506 1506 1505 1505 1505 1505 1504 1504 1504 1504 1503 1503 1502 1501 1499 1498 1497 1496 1495 1494 1493 1491
1494 1486 1487 1490 1487 1487 1491 1485 1488 1492 1502 1512 1511 1521 1521 1511 1511 1507 1505 1504 1503 1504 1505 1505 1505 1505 1505 1504 1504 1503 1503 1502 1502 1501 1500 1499 1498 1497 1495 1494 1493 1492 1490 1489
1487 1483 1483 1483 1481 1482 1483 1488 1493 1500 1511 1524 1515 1521 1525 1516 1510 1506 1505 1505 1504 1504 1505 1505 1505 1505 1504 1504 1503 1502 1501 1501 1500 1499 1498 1497 1496 1494 1493 1491 1490 1489 1487 1486
1494 1487 1482 1481 1484 1484 1487 1505 1522 1526 1532 1528 1513 1519 1522 1509 1505 1504 1504 1504 1504 1504 1504 1504 1504 1504 1503 1502 1502 1501 1500 1499 1498 1497 1496 1495 1493 1492 1490 1488 1487 1486 1485 1483
1508 1506 1487 1482 1484 1489 1490 1501 1524 1533 1535 1528 1517 1522 1517 1506 1504 1503 1504 1504 1504 1503 1503 1503 1503 1503 1502 1502 1501 1500 1499 1497 1496 1495 1494 1492 1491 1489 1488 1486 1485 1484 1482 1481
1507 1504 1485 1480 1479 1482 1491 1499 1501 1517 1522 1530 1526 1519 1512 1506 1505 1504 1505 1504 1504 1503 1503 1503 1502 1502 1502 1501 1500 1499 1498 1496 1495 1493 1491 1489 1488 1486 1485 1484 1483 1482 1481 1479
1495 1502 1490 1483 1481 1482 1485 1492 1505 1517 1529 1535 1528 1523 1521 1511 1508 1506 1505 1505 1504 1504 1504 1503 1502 1502 1501 1500 1500 1498 1497 1495 1493 1491 1489 1487 1486 1485 1484 1483 1481 1480 1479 1478
1493 1504 1499 1492 1493 1494 1491 1495 1504 1516 1521 1532 1537 1529 1507 1507 1505 1504 1504 1504 1504 1504 1503 1503 1502 1501 1501 1500 1499 1498 1496 1494 1492 1490 1488 1486 1484 1483 1482 1481 1480 1479 1478 1476
1494 1505 1510 1501 1490 1485 1488 1493 1502 1517 1521 1524 1531 1528 1503 1504 1503 1503 1503 1504 1505 1504 1503 1503 1502 1501 1501 1499 1498 1497 1495 1493 1491 1489 1486 1484 1483 1482 1480 1479 1478 1477 1476 1474
1494 1507 1519 1514 1506 1494 1493 1491 1495 1505 1516 1523 1529 1524 1505 1504 1504 1504 1504 1504 1504 1504 1503 1502 1502 1501 1500 1499 1498 1496 1494 1492 1490 1488 1485 1483 1482 1480 1479 1478 1478 1476 1475 1473
1491 1506 1516 1521 1515 1504 1500 1496 1493 1502 1518 1520 1517 1514 1508 1505 1504 1504 1504 1504 1503 1503 1502 1502 1501 1500 1499 1498 1496 1495 1493 1491 1489 1487 1485 1483 1481 1480 1479 1478 1477 1475 1474 1472
1492 1505 1503 1503 1498 1497 1497 1496 1494 1499 1504 1511 1510 1509 1506 1504 1503 1503 1503 1503 1503 1502 1502 1501 1500 1499 1498 1496 1495 1493 1491 1490 1488 1486 1484 1482 1480 1479 1478 1477 1476 1474 1473 1471
1495 1503 1503 1503 1497 1495 1497 1495 1494 1496 1498 1502 1504 1507 1501 1501 1501 1502 1502 1502 1502 1502 1501 1500 1499 1498 1496 1495 1494 1492 1490 1489 1487 1485 1483 1481 1479 1478 1477 1476 1475 1473 1472 1470
1498 1503 1510 1513 1502 1499 1507 1498 1495 1497 1496 1499 1505 1505 1501 1501 1500 1501 1501 1501 1501 1501 1500 1499 1498 1497 1495 1494 1492 1491 1489 1487 1486 1484 1482 1480 1478 1477 1476 1475 1473 1472 1470 1469
1496 1503 1512 1515 1512 1519 1508 1493 1492 1496 1498 1497 1498 1499 1499 1499 1500 1500 1501 1500 1500 1500 1499 1498 1497 1495 1494 1493 1491 1489 1488 1486 1484 1483 1481 1479 1478 1476 1475 1474 1472 1471 1469 1468
1488 1498 1510 1518 1519 1513 1501 1493 1493 1497 1502 1497 1497 1498 1499 1499 1500 1501 1501 1500 1499 1498 1498 1497 1495 1494 1493 1491 1490 1488 1486 1485 1483 1482 1480 1479 1477 1475 1474 1473 1471 1470 1468 1467
1489 1494 1507 1514 1518 1519 1505 1491 1489 1495 1505 1497 1496 1497 1498 1498 1503 1502 1499 1499 1498 1497 1496 1495 1494 1493 1491 1490 1488 1487 1485 1484 1482 1481 1479 1478 1476 1475 1473 1472 1471 1469 1468 1466
1499 1502 1507 1513 1515 1508 1494 1489 1490 1505 1505 1496 1495 1495 1496 1497 1499 1498 1498 1498 1497 1496 1495 1494 1493 1491 1490 1489 1487 1485 1484 1482 1481 1479 1478 1477 1475 1474 1472 1471 1469 1468 1467 1465
1501 1506 1508 1511 1515 1510 1489 1489 1494 1495 1492 1493 1493 1494 1495 1495 1496 1496 1496 1496 1495 1494 1493 1492 1491 1490 1489 1488 1486 1484 1482 1481 1480 1478 1477 1475 1474 1473 1471 1470 1468 1467 1466 1464
1495 1496 1499 1501 1502 1491 1487 1487 1488 1488 1490 1491 1492 1493 1493 1494 1494 1494 1494 1494 1494 1493 1492 1491 1490 1489 1488 1486 1485 1483 1481 1480 1478 1477 1475 1474 1473 1472 1470 1469 1467 1466 1464 1462
1490 1488 1492 1494 1491 1488 1487 1487 1488 1489 1489 1490 1491 1492 1492 1492 1492 1493 1493 1492 1492 1491 1490 1489 1488 1487 1486 1485 1483 1481 1480 1478 1476 1475 1474 1473 1471 1470 1469 1467 1466 1464 1462 1461
1489 1488 1492 1493 1489 1488 1487 1487 1488 1489 1489 1490 1490 1491 1491 1491 1491 1491 1491 1490 1490 1489 1488 1488 1487 1486 1484 1483 1481 1480 1478 1476 1475 1473 1472 1471 1470 1469 1467 1466 1464 1463 1461 1460
1485 1487 1490 1491 1486 1486 1487 1487 1487 1488 1488 1488 1489 1489 1489 1489 1489 1489 1489 1488 1488 1487 1487 1486 1485 1484 1483 1481 1479 1478 1476 1475 1473 1472 1471 1470 1468 1467 1466 1465 1463 1462 1461 1459